Lær å fly hos oss!

Oslo Flyveklubb har i mange år utdannet flygere til privatflygersetifikat PPL(A). Skolen har godkjenning for å drive utdanning til teoriundervisning til PPL(A), privatflygersertifikat PPL (A) og mørkeflyging.

Gi bort en flytur i gave

På en introduksjonstur vil kandidaten være med på forberedelser til, og gjennomføring av en flytur på en times varighet med en av våre instruktører.

Hvor vi holder til?

Flyplassen ligger i Lillestrøm 10 minutter med tog fra Oslo. Følg storgata fra Lillestrøms sentrum så vill man se plassen på venstre side.
Metar/TAF Gardermoen:

ENGM 150220Z 00000KT 2600 BR OVC003 M12/M14 Q1034

TAF ENGM 141700Z 1418/1518 VRB03KT 9999 -SN SCT001 OVC007 TEMPO 1418/1421 2500 BCFG BKN003 PROB40 1421/1509 0500 FZFG VV001 TEMPO 1509/1518 SCT007 BKN012